| time (UTC) | temp C | wind direction | speed KPH | gust KPH | rain 1hr cm | rain 24hr cm | rain mn cm | humidity % | barometer mb |
| 20260509084632 | 7 | 169 | 0.0 | 0.0 | 0.00 | 0.05 | 0.00 | 64 | 1007.7 |
| 20260509083609 | 7 | 173 | 0.0 | 0.0 | 0.00 | 0.05 | 0.00 | 63 | 1007.7 |
| 20260509082551 | 7 | 136 | 0.0 | 0.0 | 0.00 | 0.05 | 0.00 | 63 | 1007.9 |
| 20260509081546 | 7 | 195 | 0.0 | 0.0 | 0.00 | 0.05 | 0.00 | 62 | 1008.1 |
| 20260509080610 | 7 | 198 | 0.0 | 0.0 | 0.00 | 0.05 | 0.00 | 61 | 1008.1 |
| 20260509075601 | 7 | 198 | 0.0 | 0.0 | 0.00 | 0.05 | 0.00 | 61 | 1008.2 |
| 20260509074606 | 6 | 185 | 0.0 | 0.0 | 0.00 | 0.05 | 0.00 | 60 | 1008.1 |
| 20260509073617 | 6 | 185 | 0.0 | 0.0 | 0.00 | 0.08 | 0.00 | 60 | 1008.1 |
| 20260509072627 | 6 | 185 | 0.0 | 0.0 | 0.00 | 0.08 | 0.00 | 62 | 1008.2 |
| 20260509071611 | 6 | 191 | 0.0 | 0.0 | 0.00 | 0.08 | 0.00 | 63 | 1008.3 |
| 20260509070605 | 6 | 191 | 0.0 | 0.0 | 0.00 | 0.08 | 0.00 | 64 | 1008.4 |
| 20260509065601 | 6 | 191 | 0.0 | 0.0 | 0.00 | 0.08 | 0.00 | 64 | 1008.6 |
| 20260509064538 | 6 | 191 | 0.0 | 0.0 | 0.00 | 0.08 | 0.00 | 64 | 1008.7 |
| 20260509063534 | 6 | 184 | 0.0 | 0.0 | 0.00 | 0.08 | 0.00 | 64 | 1008.9 |
| 20260509062546 | 6 | 184 | 0.0 | 0.0 | 0.00 | 0.08 | 0.00 | 63 | 1008.9 |
| 20260509061550 | 6 | 184 | 0.0 | 0.0 | 0.00 | 0.08 | 0.00 | 63 | 1009.0 |
| 20260509054259 | 7 | 169 | 0.0 | 0.0 | 0.00 | 0.08 | 0.00 | 63 | 1009.3 |
| 20260509053309 | 7 | 160 | 0.0 | 0.0 | 0.00 | 0.08 | 0.00 | 62 | 1009.4 |
| 20260509052253 | 7 | 153 | 0.0 | 0.0 | 0.00 | 0.08 | 0.00 | 62 | 1009.6 |
| 20260509051258 | 7 | 160 | 0.0 | 0.0 | 0.00 | 0.08 | 0.00 | 61 | 1009.7 |
| 20260509050320 | 7 | 194 | 0.0 | 0.0 | 0.00 | 0.08 | 0.00 | 61 | 1009.8 |
| 20260509045248 | 7 | 163 | 0.0 | 0.0 | 0.00 | 0.08 | 0.00 | 61 | 1009.8 |
| 20260509044225 | 7 | 153 | 0.0 | 0.0 | 0.00 | 0.08 | 0.00 | 62 | 1009.9 |
| 20260509043232 | 7 | 171 | 0.0 | 0.0 | 0.00 | 0.08 | 0.00 | 62 | 1010.0 |
| 20260509042234 | 7 | 200 | 0.0 | 1.6 | 0.00 | 0.08 | 0.00 | 61 | 1010.1 |
| 20260509041252 | 7 | 190 | 0.0 | 0.0 | 0.00 | 0.08 | 0.00 | 61 | 1010.1 |
| 20260509040229 | 7 | 210 | 0.0 | 3.2 | 0.00 | 0.08 | 0.00 | 61 | 1010.1 |
| 20260509032910 | 8 | 169 | 0.0 | 1.6 | 0.00 | 0.10 | 0.08 | 60 | 1010.1 |
| 20260509031916 | 8 | 184 | 0.0 | 0.0 | 0.00 | 0.10 | 0.08 | 60 | 1010.2 |
| 20260509030902 | 8 | 160 | 0.0 | 0.0 | 0.00 | 0.10 | 0.08 | 59 | 1010.2 |
| 20260509025902 | 7 | 165 | 0.0 | 0.0 | 0.00 | 0.10 | 0.08 | 58 | 1010.3 |
| 20260509024916 | 8 | 181 | 0.0 | 0.0 | 0.00 | 0.10 | 0.08 | 59 | 1010.3 |
| 20260509023913 | 8 | 162 | 0.0 | 0.0 | 0.00 | 0.10 | 0.08 | 59 | 1010.3 |
| 20260509022909 | 8 | 176 | 0.0 | 0.0 | 0.00 | 0.10 | 0.08 | 61 | 1010.3 |
| 20260509021851 | 7 | 173 | 0.0 | 3.2 | 0.00 | 0.10 | 0.08 | 62 | 1010.3 |
| 20260509020903 | 8 | 308 | 0.0 | 0.0 | 0.00 | 0.10 | 0.08 | 61 | 1010.4 |
| 20260509014750 | 8 | 354 | 0.0 | 0.0 | 0.00 | 0.10 | 0.08 | 62 | 1010.3 |
| 20260509013724 | 8 | 354 | 0.0 | 0.0 | 0.00 | 0.10 | 0.08 | 61 | 1010.3 |
| 20260509012701 | 8 | 354 | 0.0 | 0.0 | 0.00 | 0.10 | 0.08 | 60 | 1010.2 |
| 20260509010658 | 8 | 354 | 0.0 | 0.0 | 0.00 | 0.10 | 0.08 | 60 | 1010.0 |
| 20260509005638 | 8 | 354 | 0.0 | 0.0 | 0.00 | 0.10 | 0.08 | 59 | 1009.8 |
| 20260509004628 | 9 | 354 | 0.0 | 0.0 | 0.00 | 0.10 | 0.08 | 59 | 1009.6 |
| 20260509003649 | 9 | 354 | 0.0 | 0.0 | 0.00 | 0.10 | 0.08 | 58 | 1009.5 |
| 20260509002654 | 10 | 354 | 0.0 | 0.0 | 0.00 | 0.10 | 0.08 | 58 | 1009.5 |
| 20260509001632 | 10 | 354 | 0.0 | 0.0 | 0.00 | 0.10 | 0.08 | 55 | 1009.4 |
| 20260509000634 | 11 | 354 | 0.0 | 0.0 | 0.00 | 0.10 | 0.08 | 52 | 1009.4 |
| 20260508235636 | 11 | 354 | 0.0 | 0.0 | 0.00 | 0.10 | 0.08 | 49 | 1009.4 |
| 20260508233436 | 12 | 354 | 0.0 | 0.0 | 0.00 | 0.10 | 0.08 | 45 | 1009.2 |
| 20260508232453 | 12 | 354 | 0.0 | 0.0 | 0.00 | 0.10 | 0.08 | 41 | 1009.1 |
| 20260508231440 | 13 | 354 | 0.0 | 0.0 | 0.00 | 0.10 | 0.08 | 40 | 1009.2 |
| 20260508230432 | 14 | 21 | 0.0 | 0.0 | 0.00 | 0.10 | 0.08 | 38 | 1009.1 |
| 20260508225432 | 15 | 164 | 0.0 | 3.2 | 0.00 | 0.10 | 0.08 | 35 | 1009.2 |
| 20260508224419 | 15 | 204 | 0.0 | 1.6 | 0.00 | 0.10 | 0.08 | 33 | 1009.1 |
| 20260508223426 | 16 | 23 | 0.0 | 3.2 | 0.00 | 0.10 | 0.08 | 33 | 1009.2 |
| 20260508222358 | 15 | 357 | 0.0 | 3.2 | 0.00 | 0.10 | 0.08 | 37 | 1009.0 |
| 20260508221349 | 16 | 6 | 0.0 | 3.2 | 0.00 | 0.10 | 0.08 | 39 | 1009.1 |
| 20260508220353 | 16 | 1 | 0.0 | 3.2 | 0.00 | 0.10 | 0.08 | 36 | 1009.1 |
| 20260508215358 | 16 | 346 | 0.0 | 3.2 | 0.00 | 0.10 | 0.08 | 40 | 1009.2 |
| 20260508214400 | 16 | 3 | 0.0 | 1.6 | 0.00 | 0.10 | 0.08 | 36 | 1009.3 |
| 20260508213406 | 15 | 16 | 0.0 | 4.8 | 0.00 | 0.10 | 0.08 | 33 | 1009.3 |
| 20260508212358 | 16 | 309 | 0.0 | 6.4 | 0.00 | 0.10 | 0.08 | 37 | 1009.4 |
| 20260508211342 | 16 | 224 | 1.6 | 6.4 | 0.00 | 0.10 | 0.08 | 35 | 1009.4 |
| 20260508210331 | 16 | 6 | 0.0 | 3.2 | 0.00 | 0.10 | 0.08 | 36 | 1009.4 |
| 20260508205345 | 16 | 31 | 1.6 | 6.4 | 0.00 | 0.10 | 0.08 | 37 | 1009.5 |
| 20260508204358 | 15 | 357 | 0.0 | 6.4 | 0.00 | 0.10 | 0.08 | 36 | 1009.6 |
| 20260508203357 | 15 | 115 | 0.0 | 4.8 | 0.00 | 0.10 | 0.08 | 37 | 1009.7 |
| 20260508202359 | 14 | 4 | 0.0 | 4.8 | 0.00 | 0.10 | 0.08 | 36 | 1009.8 |
| 20260508201404 | 13 | 335 | 0.0 | 9.7 | 0.00 | 0.10 | 0.08 | 37 | 1010.1 |
| 20260508200342 | 14 | 7 | 1.6 | 9.7 | 0.00 | 0.10 | 0.08 | 38 | 1010.0 |
| 20260508195359 | 14 | 161 | 0.0 | 4.8 | 0.00 | 0.10 | 0.08 | 40 | 1010.2 |
| 20260508194422 | 14 | 8 | 0.0 | 4.8 | 0.00 | 0.10 | 0.08 | 40 | 1010.2 |
| 20260508193426 | 14 | 147 | 1.6 | 12.9 | 0.00 | 0.10 | 0.08 | 42 | 1010.3 |
| 20260508190129 | 13 | 129 | 0.0 | 6.4 | 0.00 | 0.10 | 0.08 | 47 | 1010.6 |
| 20260508185152 | 13 | 358 | 1.6 | 9.7 | 0.00 | 0.10 | 0.08 | 48 | 1010.6 |
| 20260508184207 | 13 | 15 | 1.6 | 9.7 | 0.00 | 0.10 | 0.08 | 49 | 1010.7 |
| 20260508183206 | 13 | 207 | 1.6 | 8.0 | 0.00 | 0.10 | 0.08 | 48 | 1010.7 |
| 20260508182223 | 13 | 342 | 0.0 | 9.7 | 0.00 | 0.10 | 0.08 | 49 | 1010.7 |
| 20260508181225 | 13 | 359 | 1.6 | 9.7 | 0.00 | 0.10 | 0.08 | 51 | 1010.9 |
| 20260508180228 | 13 | 344 | 1.6 | 6.4 | 0.00 | 0.10 | 0.08 | 48 | 1010.9 |
| 20260508175235 | 12 | 171 | 1.6 | 8.0 | 0.00 | 0.10 | 0.08 | 54 | 1011.0 |
| 20260508174241 | 12 | 198 | 1.6 | 8.0 | 0.00 | 0.10 | 0.08 | 56 | 1011.1 |
| 20260508172126 | 11 | 359 | 4.8 | 9.7 | 0.00 | 0.10 | 0.08 | 55 | 1011.3 |
| 20260508171135 | 11 | 151 | 1.6 | 9.7 | 0.00 | 0.10 | 0.08 | 57 | 1011.4 |
| 20260508170101 | 11 | 129 | 1.6 | 8.0 | 0.00 | 0.10 | 0.08 | 63 | 1011.4 |
| 20260508165103 | 10 | 23 | 1.6 | 8.0 | 0.00 | 0.10 | 0.08 | 61 | 1011.6 |
| 20260508162944 | 9 | 319 | 1.6 | 6.4 | 0.00 | 0.10 | 0.08 | 65 | 1011.9 |
| 20260508162006 | 9 | 172 | 1.6 | 9.7 | 0.00 | 0.10 | 0.08 | 67 | 1011.9 |
| 20260508160936 | 8 | 196 | 1.6 | 9.7 | 0.00 | 0.10 | 0.08 | 71 | 1012.0 |
| 20260508155927 | 8 | 15 | 0.0 | 6.4 | 0.00 | 0.10 | 0.08 | 71 | 1012.0 |
| 20260508154947 | 8 | 356 | 0.0 | 3.2 | 0.00 | 0.10 | 0.08 | 72 | 1012.0 |
| 20260508151717 | 8 | 196 | 0.0 | 6.4 | 0.00 | 0.10 | 0.08 | 74 | 1011.9 |
| 20260508150659 | 8 | 193 | 1.6 | 8.0 | 0.00 | 0.10 | 0.08 | 75 | 1011.9 |
| 20260508145629 | 8 | 150 | 0.0 | 8.0 | 0.00 | 0.10 | 0.08 | 78 | 1011.7 |
| 20260508144600 | 7 | 188 | 0.0 | 4.8 | 0.00 | 0.10 | 0.08 | 80 | 1011.9 |
| 20260508143608 | 7 | 164 | 0.0 | 4.8 | 0.00 | 0.10 | 0.08 | 80 | 1012.0 |
| 20260508141446 | 6 | 93 | 0.0 | 6.4 | 0.00 | 0.10 | 0.08 | 86 | 1012.1 |
| 20260508140416 | 5 | 353 | 0.0 | 3.2 | 0.00 | 0.10 | 0.08 | 87 | 1012.0 |
| 20260508135344 | 5 | 340 | 0.0 | 0.0 | 0.00 | 0.10 | 0.08 | 88 | 1012.0 |
| 20260508134324 | 5 | 344 | 0.0 | 4.8 | 0.00 | 0.10 | 0.08 | 89 | 1012.0 |
| 20260508133317 | 5 | 326 | 0.0 | 3.2 | 0.00 | 0.10 | 0.08 | 90 | 1012.0 |
| 20260508132327 | 5 | 162 | 0.0 | 1.6 | 0.00 | 0.10 | 0.08 | 90 | 1012.0 |
| 20260508130211 | 4 | 13 | 0.0 | 0.0 | 0.10 | 0.10 | 0.08 | 89 | 1012.0 |
| 20260508125218 | 4 | 344 | 0.0 | 3.2 | 0.10 | 0.10 | 0.08 | 87 | 1012.1 |
| 20260508124155 | 5 | 336 | 1.6 | 6.4 | 0.00 | 0.08 | 0.05 | 86 | 1012.0 |
| 20260508123216 | 5 | 359 | 0.0 | 6.4 | 0.00 | 0.05 | 0.03 | 84 | 1011.8 |
| 20260508122222 | 5 | 325 | 0.0 | 0.0 | 0.00 | 0.05 | 0.03 | 87 | 1011.7 |
| 20260508121153 | 5 | 334 | 0.0 | 1.6 | 0.00 | 0.05 | 0.03 | 87 | 1011.5 |
| 20260508120135 | 5 | 223 | 0.0 | 0.0 | 0.00 | 0.05 | 0.03 | 91 | 1011.3 |
| 20260508115152 | 5 | 307 | 0.0 | 0.0 | 0.00 | 0.05 | 0.03 | 92 | 1011.0 |
| 20260508114148 | 5 | 165 | 0.0 | 0.0 | 0.00 | 0.05 | 0.03 | 93 | 1011.0 |
| 20260508113113 | 5 | 159 | 0.0 | 0.0 | 0.00 | 0.05 | 0.03 | 94 | 1010.8 |
| 20260508112114 | 4 | 159 | 0.0 | 0.0 | 0.00 | 0.05 | 0.03 | 94 | 1010.6 |
| 20260508111112 | 4 | 159 | 0.0 | 0.0 | 0.00 | 0.05 | 0.03 | 94 | 1010.5 |
| 20260508110113 | 4 | 159 | 0.0 | 0.0 | 0.00 | 0.05 | 0.03 | 94 | 1010.3 |
| 20260508105114 | 3 | 159 | 0.0 | 0.0 | 0.00 | 0.05 | 0.03 | 94 | 1010.3 |
| 20260508104055 | 3 | 159 | 0.0 | 0.0 | 0.00 | 0.05 | 0.03 | 94 | 1010.3 |
| 20260508100828 | 3 | 159 | 0.0 | 0.0 | 0.00 | 0.05 | 0.03 | 94 | 1010.5 |
| 20260508095817 | 3 | 159 | 0.0 | 0.0 | 0.00 | 0.05 | 0.03 | 94 | 1010.7 |
| 20260508094839 | 3 | 159 | 0.0 | 0.0 | 0.00 | 0.05 | 0.03 | 94 | 1010.6 |
| 20260508093807 | 3 | 159 | 0.0 | 0.0 | 0.00 | 0.05 | 0.03 | 94 | 1011.0 |
| 20260508092813 | 3 | 159 | 0.0 | 0.0 | 0.00 | 0.05 | 0.03 | 94 | 1010.9 |
| 20260508091802 | 2 | 159 | 0.0 | 0.0 | 0.00 | 0.05 | 0.03 | 94 | 1011.0 |